{"data":{"norad_id":65438,"epoch":"2026-05-25T02:54:24.133824Z","epoch_age_seconds":64561,"freshness":"FRESH","line1":"1 65438U 25194E   26145.12111266  .00003812  00000+0  26797-3 0  9992","line2":"2 65438  97.4505 359.2758 0002746  83.0507 277.1033 15.05672930 41140","mean_motion":15.0567293,"eccentricity":0.0002746,"inclination_deg":97.4505,"raan_deg":359.2758,"arg_perigee_deg":83.0507,"mean_anomaly_deg":277.1033,"bstar":0.00026797,"rev_number":4114,"period_min":95.638300410966,"perigee_km":547.53850656083,"apogee_km":551.34313229926,"semimajor_km":6927.57781943,"source":"CELESTRAK","updated_at":"2026-05-25T13:38:20.806466Z"}}